Weather WX

World > North America > United States > New Hampshire

Newington, New Hampshire Regional Weather

Lat: 43.10N, Lon: 70.83W
Wx Zone: NHZ014
Warning FLW WEATHER ALERT - (More Info. Click Here) Warning
Feedback

Newington, NH Regional Weather

Expires:201907180700;;236808
ASUS41 KBOX 180610
RWRBOX

REGIONAL WEATHER ROUNDUP
NATIONAL WEATHER SERVICE BOSTON/NORTON MA
200 AM EDT THU JUL 18 2019

NOTE:  "FAIR" INDICATES FEW OR NO CLOUDS BELOW 12,000 FEET WITH NO 
SIGNIFICANT WEATHER AND/OR OBSTRUCTIONS TO VISIBILITY.


MEZ002-015-021-024-NHZ003-005-008-011-012-014-VTZ005-008-180700-
NORTHERN NEW ENGLAND
  
CITY           SKY/WX    TMP DP  RH WIND       PRES   REMARKS
PORTLAND ME    FAIR      71  67  87 CALM      29.91R                  
6HR MIN TEMP:  71; 6HR MAX TEMP:  81; 6HR PCP: TRACE;                

BANGOR ME      FAIR      64  59  83 N6        29.94R                  
CONCORD NH       N/A    N/A N/A N/A MISG      29.92R                  
MANCHESTER NH  FAIR      74  71  91 CALM      29.89F                  
NASHUA NH      FAIR      72  72 100 CALM      29.90F                  
PORTSMOUTH NH  PTCLDY    72  72 100 CALM      29.88S FOG              
JAFFREY NH     CLOUDY    71  68  90 CALM      29.95F                  
KEENE NH       FOG       70  70 100 CALM      29.93F VSB 1/4          
BURLINGTON VT  FAIR      67  65  93 CALM      29.96S                  
MT. WASHINGTON FOG       52  52 100 NW18        N/A  VSB 1/4          
$$


SKY/WX - Weather  TMP - Temperature  DP - Dew Point  RH - Relative Humidity
WIND - Wind Direction/Speed PRES - Barometric Pressure VSB - Visibility
WCI - Wind Chill Index E13G22 Wind - East Wind 13 mph/Gusts of 22 mph